Date,TemperatureHighF,TemperatureAvgF,TemperatureLowF,DewpointHighF,DewpointAvgF,DewpointLowF,HumidityHigh,HumidityAvg,HumidityLow,PressureMaxIn,PressureMinIn,WindSpeedMaxMPH,WindSpeedAvgMPH,GustSpeedMaxMPH,PrecipitationSumIn
2013-2-1,30.9,25.6,20.5,26.1,-45.2,-64.6,98,17,1,30.06,29.62,10,4,0,0.00
2013-2-2,28.4,21.6,15.6,24.1,-36.1,-68.4,98,30,1,30.13,29.91,6,2,0,0.00
2013-2-3,29.5,27.3,23.0,21.7,-40.8,-63.7,74,11,1,29.64,29.62,5,2,0,0.01
2013-2-4,28.2,24.7,19.2,24.7,-48.6,-66.1,98,14,1,29.82,29.74,11,3,0,0.00
2013-2-5,31.1,28.2,24.8,30.6,-9.4,-62.6,98,53,1,29.80,29.71,4,1,0,0.00
2013-2-6,38.3,32.3,25.9,35.8,-13.8,-61.9,98,46,1,30.19,29.74,7,2,0,0.04
2013-2-7,33.3,27.0,19.8,27.4,-44.5,-65.1,98,16,1,30.33,30.15,4,1,0,0.00
2013-2-8,36.9,33.4,29.5,36.4,10.9,-59.6,98,72,1,30.14,29.47,8,4,0,0.01
2013-2-9,35.8,27.7,18.1,35.3,-30.5,-66.8,98,31,1,30.18,29.58,13,5,0,0.00
2013-2-10,37.2,23.5,12.0,16.7,-56.3,-70.7,98,8,1,30.24,30.15,7,3,0,0.20
2013-2-11,53.2,40.5,27.7,52.6,18.5,-60.8,98,74,1,30.16,29.49,4,0,0,0.57
2013-2-12,48.9,38.5,31.1,48.4,-22.9,-58.6,98,28,1,29.81,29.57,10,4,0,0.01
2013-2-13,45.1,34.9,26.6,40.3,-33.8,-61.4,98,23,1,29.79,29.51,5,1,0,0.00
2013-2-14,43.2,39.8,35.8,41.9,9.8,-55.7,98,64,1,29.83,29.53,4,1,0,0.09
2013-2-15,43.3,35.4,32.7,35.5,-4.5,-56.8,98,54,1,29.85,29.81,5,2,0,0.00
2013-2-16,41.5,35.8,28.4,41.0,-3.8,-60.3,98,51,1,29.81,29.57,8,4,0,0.04
2013-2-17,29.7,24.9,16.5,-52.6,-62.4,-67.8,2,1,1,29.84,29.51,13,7,0,0.00
2013-2-18,34.9,27.8,14.7,-56.3,-60.7,-68.9,1,1,1,30.10,29.85,8,3,0,0.00
2013-2-19,43.7,29.1,23.9,39.2,-33.3,-63.1,98,26,1,30.03,29.56,5,1,0,0.01
2013-2-20,34.2,29.9,27.5,27.7,-37.9,-60.9,98,19,1,29.73,29.57,7,4,0,0.00
2013-2-21,33.4,30.2,25.7,-57.2,-59.2,-62.0,1,1,1,30.07,29.83,13,7,0,0.00
2013-2-22,38.1,31.3,21.9,35.5,-25.9,-64.4,98,32,1,30.24,30.09,5,1,0,0.00
2013-2-23,52.0,46.4,34.0,51.5,45.9,33.5,98,98,98,30.11,29.63,7,1,0,0.33
2013-2-24,52.5,42.8,31.1,52.0,-4.9,-58.6,98,47,1,29.82,29.59,7,4,0,0.02
2013-2-25,41.7,32.8,28.6,41.2,-48.6,-60.2,98,8,1,30.00,29.77,7,3,0,0.00